Location: Napier
(39.4830°S, 176.9170°E)
Time: 02:43:26
(UTC+12:00)

CZ-4B R/B - Pass Details

Date: 15 August 2020
Orbit: 809 x 881 km, 99.1° (Epoch: 19 September)

Event Time Altitude Azimuth Distance (km) Brightness Sun altitude
Rises 18:04:06 0° 163° (SSE) 3,425 6.1 -6.4°
Reaches altitude 10° 18:06:32 10° 159° (SSE) 2,473 5.3 -6.8°
Maximum altitude 18:11:56 60° 79° (ENE) 949 3.2 -7.9°
Drops below altitude 10° 18:17:12 10° 359° (N) 2,406 5.7 -8.9°
Sets 18:19:32 0° 355° (N) 3,325 6.5 -9.3°
